Lid_Strength_Index
-1 0 1 3 11 12 15 12 10 9 8 7 6 7 7 7 9 12 2 2 0 0 -0 -0 -1 -1 -2 -1 -1 -1 -1 -1 -1 -2 -2 -2 -2 -2 -2 -2 -2 -2 -2 -2 -2 -2 -2 -2 -2
-0 1 2 7 14 17 15 10 10 8 6 6 6 6 7 9 5 5 4 1 0 0 -0 -0 -1 -1 -1 -2 -2 -1 -1 -1 -2 -2 -2 -2 -2 -2 -2 -2 -2 -2 -2 -2 -2 -2 -2 -2 -2
0 1 7 11 13 16 15 10 9 6 6 6 6 6 7 7 4 4 3 1 0 0 -0 -0 -1 -1 -1 -2 -2 -1 -1 -2 -2 -2 -2 -2 -2 -2 -2 -2 -2 -2 -2 -2 -2 -2 -2 -2 -2
2 4 6 13 15 11 11 8 7 6 5 5 6 8 5 3 4 2 3 1 1 0 -0 -1 -1 -1 -1 -2 -1 -1 -1 -2 -2 -2 -2 -2 -2 -2 -2 -2 -2 -2 -2 -2 -2 -2 -2 -2 -2
3 6 12 13 13 10 7 6 6 7 7 6 6 7 7 3 2 2 3 1 1 1 -0 -0 -1 -1 -1 -1 -1 -1 -2 -1 -2 -2 -2 -1 -1 -2 -2 -2 -2 -2 -2 -2 -2 -2 -2 -2 -2
7 7 13 15 12 9 7 6 7 7 7 6 7 8 7 3 3 2 3 2 0 1 -0 -0 -1 -1 -1 -1 -1 -1 -2 -2 -2 -2 -2 -2 -2 -2 -2 -2 -2 -2 -2 -2 -2 -2 -2 -2 -2
9 10 13 12 11 10 7 6 8 7 7 7 5 8 6 4 3 2 1 1 0 0 0 -0 -0 -1 -1 -1 -1 -1 -2 -2 -2 -2 -2 -1 -2 -2 -2 -2 -2 -2 -2 -2 -2 -2 -2 -2 -2
6 9 12 11 11 11 7 6 5 6 7 4 4 9 8 4 2 3 3 2 1 0 0 0 -0 -0 -0 -0 -1 -1 -2 -2 -2 -2 -2 -2 -2 -2 -2 -2 -2 -2 -2 -2 -2 -2 -2 -2 -2
5 11 13 11 10 9 7 8 6 5 7 5 4 5 4 2 2 4 4 2 1 1 1 0 0 0 0 -0 -1 -1 -2 -2 -2 -1 -1 -1 -0 -0 -1 -2 -2 -2 -2 -2 -2 -2 -2 -2 -3
8 11 11 8 9 9 7 8 8 8 9 9 7 4 3 3 3 4 4 4 3 2 1 1 0 0 0 -0 -0 0 -0 -0 0 -0 -0 -0 0 -0 -1 -1 -2 -2 -2 -1 -1 -2 -2 -1 2
9 10 7 7 6 5 6 7 6 8 9 9 9 6 4 4 4 4 3 3 3 2 1 1 0 0 0 0 0 0 0 0 1 0 0 1 -0 -0 -0 0 1 1 -0 1 0 0 1 3 2
10 7 6 6 5 6 7 6 7 6 6 5 6 7 4 5 4 4 4 3 3 2 1 1 0 0 0 0 0 0 0 1 1 0 0 1 1 0 1 1 2 2 3 2 2 2 1 3 2
9 7 6 6 6 6 6 7 7 6 5 4 4 5 7 8 5 3 3 2 2 2 2 1 0 0 1 0 0 1 1 1 1 1 0 1 2 1 0 1 2 3 5 5 5 4 4 5 4
7 7 7 7 6 6 7 7 7 6 5 5 5 6 6 6 8 8 4 3 3 2 2 1 1 0 0 1 2 2 0 -0 0 0 1 1 2 2 1 1 3 5 7 6 5 6 6 7 5
6 9 8 7 7 7 6 8 8 6 6 6 6 6 6 6 6 7 7 3 2 2 1 1 1 0 1 1 0 0 0 -0 0 -0 -0 2 3 4 3 4 7 8 7 6 7 8 8 8 7
9 9 12 8 7 7 8 12 7 6 6 7 7 7 6 5 5 6 4 4 2 2 2 1 0 0 1 1 0 0 0 0 0 -0 2 3 4 4 5 6 8 8 8 8 8 8 8 8 9
11 14 12 10 7 7 9 11 7 6 6 7 7 7 6 5 4 3 3 4 2 2 2 2 1 2 1 0 1 1 1 1 1 0 3 3 5 4 6 7 8 8 8 8 7 8 8 9 9
14 13 12 12 9 8 10 10 8 7 7 7 7 7 6 6 5 3 3 4 3 2 2 1 2 2 1 1 0 1 1 1 0 2 4 5 6 6 7 7 8 8 8 8 8 8 9 9 9
11 12 12 10 8 9 10 10 9 7 7 7 7 7 6 6 4 3 2 2 3 2 3 2 2 1 2 2 2 2 2 1 2 4 4 5 6 7 7 8 8 7 8 8 8 9 9 10 10
11 12 12 10 8 10 10 11 9 8 8 7 7 7 7 6 5 4 3 3 3 3 2 2 2 2 2 2 3 1 2 2 2 4 4 6 7 7 7 8 8 7 8 8 8 8 9 9 10
12 12 12 12 10 9 10 13 11 9 8 7 7 6 6 6 6 5 4 4 3 3 3 2 3 2 2 2 2 1 2 3 3 5 6 6 7 6 7 7 7 7 7 8 7 8 8 9 9
14 9 9 10 13 16 11 18 13 10 10 9 8 7 6 6 5 4 4 4 4 3 3 3 3 3 2 1 1 2 2 3 4 5 6 6 7 7 7 7 7 7 6 7 7 6 7 8 9
12 9 10 10 13 14 13 16 15 11 12 10 9 7 6 5 5 5 4 3 3 2 3 3 3 2 2 2 3 2 3 4 5 6 6 7 6 6 6 7 7 8 7 7 8 8 7 7 8
9 9 11 11 13 18 14 15 16 14 12 10 8 7 6 6 5 4 4 3 3 2 2 2 2 3 2 2 2 3 4 4 5 5 6 6 6 6 6 6 6 7 7 8 8 8 8 8 8
11 13 19 18 19 20 13 15 15 11 10 10 9 8 6 6 5 5 5 4 4 3 3 2 2 2 2 1 2 1 3 3 4 5 5 6 7 7 7 6 6 7 7 7 7 7 7 7 8
13 13 19 24 22 19 13 18 14 9 8 8 7 7 6 7 6 5 4 4 3 3 3 2 2 3 2 1 2 2 4 4 4 5 5 5 7 6 6 6 6 6 7 7 7 7 7 7 8
13 15 11 16 16 19 17 13 10 9 9 8 9 7 7 7 7 7 6 5 3 3 3 2 3 3 3 4 3 4 4 4 5 5 5 5 5 6 6 6 6 6 7 7 7 8 8 8 8
13 11 15 15 21 21 17 17 16 12 11 9 10 9 8 7 7 7 7 6 5 5 5 4 4 4 4 5 4 4 4 4 4 3 4 4 4 4 5 6 6 6 7 7 8 8 8 8 9
13 14 14 14 15 19 20 17 12 11 10 10 9 9 8 7 7 7 7 6 6 5 6 6 5 6 6 7 6 6 6 5 5 5 5 5 6 6 6 7 7 7 8 8 8 8 8 9 9
13 15 15 18 18 16 16 16 9 9 8 9 9 9 8 7 8 8 8 7 7 6 7 8 8 8 8 7 8 8 7 7 6 6 6 6 7 6 7 6 6 6 6 5 5 6 7 8 9